Regional Weather Roundup
Issued by NWS Sioux Falls, SD

Home | Current Version | Previous Version | Text Only | Print | Product List | Glossary On
Versions: 1 2 3 4 5 6 7 8 9 10 11 12 13 14 15 16 17 18 19 20 21 22 23 24 25 26 27 28 29 30 31 32 33 34 35 36 37 38 39 40 41 42 43 44 45 46 47 48 49 50
272
ASUS43 KFSD 091302
RWRFSD

WEATHER ROUNDUP FOR SE SOUTH DAKOTA/SW MINNESOTA/NW IOWA
NATIONAL WEATHER SERVICE SIOUX FALLS SD
700 AM CST TUE FEB 09 2016

NOTE: "FAIR" INDICATES FEW OR NO CLOUDS BELOW 12,000 FEET WITH NO
SIGNIFICANT WEATHER AND OR OBSTRUCTIONS TO VISIBILITY.


SDZ038>040-050-052>070-091400-
SOUTHEAST SOUTH DAKOTA

CITY           SKY/WX    TMP DP  RH WIND       PRES   REMARKS
BROOKINGS      CLEAR      3  -2  79 N12       30.19R WCI -13
CHAMBERLAIN    NOT AVBL
HURON          CLOUDY    13   7  77 NW13      30.28R WCI  -2
MADISON        FAIR       5   1  85 N13G20    30.19R WCI -12
MITCHELL       PTCLDY    14   8  77 NW15      30.30R WCI  -1
SIOUX FALLS    PTCLDY     6  -1  73 N16       30.21R WCI -12
WINNER         CLOUDY    23  12  62 NW6       30.28R WCI  16
YANKTON        CLEAR     14   5  67 NW18      30.25R WCI  -3
$$

MNZ071-072-080-081-089-090-097-098-091400-
SOUTHWEST MINNESOTA

CITY           SKY/WX    TMP DP  RH WIND       PRES   REMARKS
FAIRMONT       PTCLDY     5  -2  72 NW20      30.08R WCI -15
JACKSON        CLOUDY     5   0  78 NW24G35   30.10R HAZE    WCI -17
LUVERNE        CLEAR      9   1  72 N12G21    30.18R WCI  -6
MARSHALL       CLEAR      5  -1  76 NW18      30.20R WCI -15
MONTEVIDEO     CLEAR      3   0  85 N15G21    30.22R WCI -15
PIPESTONE      CLEAR      7  -6  56 N13G23    30.14S WCI  -9
REDWOOD FALLS  CLEAR      5  -1  76 NW14G21   30.16R WCI -12
TRACY          CLEAR      6   1  79 N17G24    30.16R WCI -13
WINDOM         CLEAR      3   0  85 NW23      30.11R WCI -19
WORTHINGTON    PTCLDY     3  -2  78 N23       30.12S WCI -19
$$

IAZ001>003-012>014-020>022-031-032-NEZ013-014-SDZ071-091400-
NORTHWEST IOWA

CITY           SKY/WX    TMP DP  RH WIND       PRES   REMARKS
ESTHERVILLE    CLOUDY     3   0  87 NW22G29   30.10R FOG     WCI -19
SIOUX CITY     PTCLDY    12   2  64 NW25G32   30.20R WCI  -8
SPENCER        CLOUDY     5  -1  76 N24       30.12S HAZE    WCI -17
STORM LAKE     CLOUDY     5   1  85 NW18      30.12R WCI -15
$$

ABBREVIATIONS USED IN REMARKS
   TC - TEMPERATURE IN CELSIUS
  WCI - WIND CHILL INDEX
   HX - HEAT INDEX
  VSB - VISIBILITY





USA.gov is the U.S. government's official web portal to all federal, state and local government web resources and services.